Location: ??
(31.9467°N, 34.8903°E)
Time: 12:36:30
(UTC+00:00)

ARGOS - Pass Details

Date: 29 October 2020
Orbit: 820 x 835 km, 98.4° (Epoch: 26 November)

Event Time Altitude Azimuth Distance (km) Brightness Sun altitude
Exits shadow 16:35:49 31° 33° (NNE) 1,437 4.1 -22.3°
Drops below altitude 10° 16:39:05 10° 5° (N) 2,449 5.5 -23.0°
Sets 16:41:35 0° 358° (N) 3,387 6.4 -23.5°
